User: anonymous   Login
Location: G�migny
(47.9646°N, 1.6950°E)
Time: 10:08:31
(UTC+00:00)
Language:

STARLINK-32 - Orbit

View from above orbital plane
View from above orbital plane
View from above satellite
View from above satellite

Ground track
Ground track

The orbit data is extracted from the following two-line orbital elements,

1 44254U 19029V   19347.25001157 -.00015483  00000-0 -87291-3 0  9998
2 44254  52.9992 339.5313 0000957 106.7593 239.9504 15.12136367 30714
Epoch (UTC): 13 December 2019 06:00:01
Eccentricity: 0.0000957
inclination: 52.9992°
perigee height: 529 km
apogee height: 530 km
right ascension of ascending node: 339.5313°
argument of perigee: 106.7593°
revolutions per day: 15.12136367
mean anomaly at epoch: 239.9504°
orbit number at epoch: 3071

The dashed part of the orbit path shows where the satellite is in the earth's shadow,  

DLR